| time (UTC) | temp F | wind direction | speed MPH | gust MPH | rain 1hr in | rain 24hr in | rain mn in | humidity % | barometer mb |
| 20260502170302 | 63 | 173 | 3.0 | 6.0 | 0.00 | 0.00 | 0.00 | 54 | 1005.1 |
| 20260502164302 | 64 | 172 | 3.0 | 7.0 | 0.00 | 0.00 | 0.00 | 53 | 1006.1 |
| 20260502163802 | 64 | 170 | 3.0 | 7.0 | 0.00 | 0.00 | 0.00 | 52 | 1006.1 |
| 20260502163302 | 65 | 158 | 4.0 | 7.0 | 0.00 | 0.00 | 0.00 | 51 | 1006.1 |
| 20260502162802 | 65 | 170 | 4.0 | 7.0 | 0.00 | 0.00 | 0.00 | 51 | 1006.1 |
| 20260502162304 | 66 | 158 | 3.0 | 8.0 | 0.00 | 0.00 | 0.00 | 50 | 1006.1 |
| 20260502161802 | 66 | 167 | 4.0 | 8.0 | 0.00 | 0.00 | 0.00 | 49 | 1006.1 |
| 20260502161302 | 67 | 164 | 2.0 | 5.0 | 0.00 | 0.00 | 0.00 | 48 | 1006.1 |
| 20260502160802 | 67 | 169 | 3.0 | 7.0 | 0.00 | 0.00 | 0.00 | 48 | 1006.1 |
| 20260502160302 | 67 | 168 | 2.0 | 7.0 | 0.00 | 0.00 | 0.00 | 48 | 1006.1 |
| 20260502152305 | 67 | 170 | 5.0 | 10.0 | 0.00 | 0.00 | 0.00 | 47 | 1006.6 |
| 20260502151802 | 67 | 157 | 6.0 | 12.0 | 0.00 | 0.00 | 0.00 | 47 | 1006.6 |
| 20260502151302 | 67 | 178 | 5.0 | 9.0 | 0.00 | 0.00 | 0.00 | 46 | 1006.6 |
| 20260502150803 | 67 | 167 | 6.0 | 12.0 | 0.00 | 0.00 | 0.00 | 47 | 1006.6 |
| 20260502150302 | 67 | 160 | 8.0 | 13.0 | 0.00 | 0.00 | 0.00 | 45 | 1007.4 |
| 20260502130302 | 71 | 177 | 5.0 | 14.0 | 0.00 | 0.00 | 0.00 | 41 | 1008.1 |
| 20260502123802 | 74 | 212 | 7.0 | 16.0 | 0.00 | 0.00 | 0.00 | 33 | 1008.5 |
| 20260502123302 | 74 | 206 | 6.0 | 16.0 | 0.00 | 0.00 | 0.00 | 33 | 1008.5 |
| 20260502122802 | 74 | 237 | 5.0 | 15.0 | 0.00 | 0.00 | 0.00 | 33 | 1008.5 |
| 20260502122305 | 75 | 203 | 2.0 | 14.0 | 0.00 | 0.00 | 0.00 | 34 | 1008.5 |
| 20260502121803 | 75 | 233 | 5.0 | 14.0 | 0.00 | 0.00 | 0.00 | 34 | 1008.5 |
| 20260502120802 | 74 | 184 | 4.0 | 14.0 | 0.00 | 0.00 | 0.00 | 34 | 1008.5 |
| 20260502120303 | 74 | 192 | 3.0 | 15.0 | 0.00 | 0.00 | 0.00 | 34 | 1008.5 |
| 20260502115305 | 74 | 197 | 5.0 | 12.0 | 0.00 | 0.00 | 0.00 | 34 | 1009.6 |
| 20260502114802 | 74 | 193 | 6.0 | 12.0 | 0.00 | 0.00 | 0.00 | 34 | 1009.6 |
| 20260502114303 | 73 | 262 | 6.0 | 18.0 | 0.00 | 0.00 | 0.00 | 33 | 1009.6 |
| 20260502113802 | 74 | 165 | 3.0 | 14.0 | 0.00 | 0.00 | 0.00 | 34 | 1009.6 |
| 20260502113302 | 74 | 208 | 5.0 | 14.0 | 0.00 | 0.00 | 0.00 | 34 | 1009.6 |
| 20260502112802 | 73 | 201 | 6.0 | 15.0 | 0.00 | 0.00 | 0.00 | 34 | 1009.6 |
| 20260502112305 | 73 | 266 | 6.0 | 13.0 | 0.00 | 0.00 | 0.00 | 34 | 1009.6 |
| 20260502111302 | 73 | 245 | 5.0 | 13.0 | 0.00 | 0.00 | 0.00 | 34 | 1009.6 |
| 20260502110302 | 73 | 208 | 6.0 | 12.0 | 0.00 | 0.00 | 0.00 | 34 | 1009.6 |
| 20260502105802 | 72 | 270 | 5.0 | 12.0 | 0.00 | 0.00 | 0.00 | 34 | 1009.6 |
| 20260502105305 | 72 | 246 | 7.0 | 14.0 | 0.00 | 0.00 | 0.00 | 34 | 1009.6 |
| 20260502104803 | 72 | 255 | 5.0 | 12.0 | 0.00 | 0.00 | 0.00 | 34 | 1009.6 |
| 20260502103803 | 71 | 286 | 6.0 | 20.0 | 0.00 | 0.00 | 0.00 | 33 | 1009.6 |
| 20260502102802 | 72 | 203 | 3.0 | 15.0 | 0.00 | 0.00 | 0.00 | 34 | 1009.9 |
| 20260502101803 | 70 | 239 | 5.0 | 14.0 | 0.00 | 0.00 | 0.00 | 34 | 1009.9 |
| 20260502101302 | 70 | 232 | 5.0 | 16.0 | 0.00 | 0.00 | 0.00 | 34 | 1009.9 |
| 20260502100802 | 70 | 215 | 6.0 | 16.0 | 0.00 | 0.00 | 0.00 | 35 | 1009.9 |
| 20260502091302 | 68 | 235 | 5.0 | 15.0 | 0.00 | 0.00 | 0.00 | 35 | 1010.8 |
| 20260502090803 | 67 | 207 | 4.0 | 16.0 | 0.00 | 0.00 | 0.00 | 35 | 1010.8 |
| 20260502090303 | 67 | 216 | 7.0 | 18.0 | 0.00 | 0.00 | 0.00 | 35 | 1010.8 |
| 20260502071302 | 61 | 222 | 6.0 | 14.0 | 0.00 | 0.00 | 0.00 | 42 | 1011.8 |
| 20260502070803 | 61 | 203 | 3.0 | 9.0 | 0.00 | 0.00 | 0.00 | 44 | 1011.8 |
| 20260502070303 | 61 | 181 | 4.0 | 13.0 | 0.00 | 0.00 | 0.00 | 44 | 1011.8 |
| 20260502065802 | 60 | 219 | 5.0 | 14.0 | 0.00 | 0.00 | 0.00 | 44 | 1011.8 |
| 20260502064802 | 60 | 174 | 3.0 | 12.0 | 0.00 | 0.00 | 0.00 | 46 | 1011.8 |
| 20260502064303 | 60 | 240 | 3.0 | 12.0 | 0.00 | 0.00 | 0.00 | 46 | 1011.8 |
| 20260502063802 | 59 | 183 | 3.0 | 10.0 | 0.00 | 0.00 | 0.00 | 47 | 1011.8 |
| 20260502063303 | 59 | 206 | 5.0 | 14.0 | 0.00 | 0.00 | 0.00 | 47 | 1011.8 |
| 20260502062305 | 58 | 220 | 2.0 | 12.0 | 0.00 | 0.00 | 0.00 | 47 | 1011.8 |
| 20260502061303 | 58 | 244 | 3.0 | 9.0 | 0.00 | 0.00 | 0.00 | 49 | 1011.9 |
| 20260502060802 | 58 | 245 | 4.0 | 9.0 | 0.00 | 0.00 | 0.00 | 48 | 1011.9 |
| 20260502055305 | 57 | 243 | 5.0 | 12.0 | 0.00 | 0.00 | 0.00 | 49 | 1012.0 |
| 20260502054303 | 57 | 219 | 3.0 | 12.0 | 0.00 | 0.00 | 0.00 | 50 | 1012.0 |
| 20260502053802 | 57 | 227 | 4.0 | 12.0 | 0.00 | 0.00 | 0.00 | 50 | 1012.0 |
| 20260502053303 | 57 | 195 | 4.0 | 9.0 | 0.00 | 0.00 | 0.00 | 50 | 1012.0 |
| 20260502052306 | 56 | 247 | 5.0 | 12.0 | 0.00 | 0.00 | 0.00 | 50 | 1012.0 |
| 20260502051303 | 56 | 191 | 3.0 | 10.0 | 0.00 | 0.00 | 0.00 | 51 | 1012.2 |
| 20260502050802 | 56 | 257 | 4.0 | 10.0 | 0.00 | 0.00 | 0.00 | 51 | 1012.2 |
| 20260502045802 | 56 | 227 | 6.0 | 12.0 | 0.00 | 0.00 | 0.00 | 52 | 1012.2 |
| 20260502044802 | 56 | 277 | 5.0 | 9.0 | 0.00 | 0.00 | 0.00 | 52 | 1012.2 |
| 20260502043803 | 55 | 252 | 3.0 | 10.0 | 0.00 | 0.00 | 0.00 | 53 | 1012.2 |
| 20260502043302 | 55 | 11 | 2.0 | 10.0 | 0.00 | 0.00 | 0.00 | 53 | 1012.2 |
| 20260502042305 | 55 | 176 | 2.0 | 5.0 | 0.00 | 0.00 | 0.00 | 53 | 1012.2 |
| 20260502041803 | 55 | 219 | 2.0 | 9.0 | 0.00 | 0.00 | 0.00 | 53 | 1012.2 |
| 20260502041303 | 55 | 253 | 3.0 | 8.0 | 0.00 | 0.00 | 0.00 | 53 | 1012.2 |
| 20260502040803 | 55 | 233 | 1.0 | 9.0 | 0.00 | 0.00 | 0.00 | 53 | 1012.3 |
| 20260502035803 | 55 | 212 | 4.0 | 10.0 | 0.00 | 0.00 | 0.00 | 53 | 1012.3 |
| 20260502035306 | 55 | 194 | 5.0 | 8.0 | 0.00 | 0.00 | 0.00 | 54 | 1012.3 |
| 20260502034803 | 54 | 143 | 2.0 | 5.0 | 0.00 | 0.00 | 0.00 | 54 | 1012.3 |
| 20260502034303 | 54 | 195 | 2.0 | 13.0 | 0.00 | 0.00 | 0.00 | 54 | 1012.3 |
| 20260502033802 | 54 | 270 | 3.0 | 8.0 | 0.00 | 0.00 | 0.00 | 54 | 1012.4 |
| 20260502033303 | 54 | 250 | 3.0 | 7.0 | 0.00 | 0.00 | 0.00 | 55 | 1012.4 |
| 20260502032305 | 54 | 169 | 2.0 | 9.0 | 0.00 | 0.00 | 0.00 | 55 | 1012.5 |
| 20260502031802 | 54 | 231 | 1.0 | 3.0 | 0.00 | 0.00 | 0.00 | 54 | 1012.6 |
| 20260502030802 | 54 | 243 | 2.0 | 8.0 | 0.00 | 0.00 | 0.00 | 55 | 1012.6 |
| 20260502030302 | 54 | 241 | 2.0 | 8.0 | 0.00 | 0.00 | 0.00 | 55 | 1012.6 |
| 20260502025802 | 54 | 281 | 2.0 | 5.0 | 0.00 | 0.00 | 0.00 | 55 | 1012.8 |
| 20260502025306 | 54 | 236 | 1.0 | 5.0 | 0.00 | 0.00 | 0.00 | 54 | 1012.8 |
| 20260502024803 | 54 | 258 | 2.0 | 7.0 | 0.00 | 0.00 | 0.00 | 54 | 1012.8 |
| 20260502024303 | 55 | 262 | 1.0 | 8.0 | 0.00 | 0.00 | 0.00 | 54 | 1012.8 |
| 20260502023803 | 55 | 268 | 3.0 | 8.0 | 0.00 | 0.00 | 0.00 | 54 | 1012.8 |
| 20260502022803 | 55 | 270 | 2.0 | 7.0 | 0.00 | 0.00 | 0.00 | 54 | 1012.9 |
| 20260502022306 | 55 | 276 | 2.0 | 10.0 | 0.00 | 0.00 | 0.00 | 54 | 1012.9 |
| 20260502021303 | 55 | 247 | 3.0 | 7.0 | 0.00 | 0.00 | 0.00 | 53 | 1013.0 |
| 20260502020802 | 55 | 276 | 2.0 | 7.0 | 0.00 | 0.00 | 0.00 | 53 | 1013.0 |
| 20260502020303 | 55 | 274 | 2.0 | 6.0 | 0.00 | 0.00 | 0.00 | 53 | 1013.0 |
| 20260502015803 | 55 | 257 | 3.0 | 6.0 | 0.00 | 0.00 | 0.00 | 53 | 1013.0 |
| 20260502015305 | 55 | 259 | 2.0 | 8.0 | 0.00 | 0.00 | 0.00 | 52 | 1013.0 |
| 20260502014803 | 56 | 255 | 2.0 | 12.0 | 0.00 | 0.00 | 0.00 | 52 | 1013.0 |
| 20260502014302 | 56 | 262 | 3.0 | 10.0 | 0.00 | 0.00 | 0.00 | 52 | 1013.1 |
| 20260502013303 | 56 | 259 | 3.0 | 13.0 | 0.00 | 0.00 | 0.00 | 52 | 1013.2 |
| 20260502012803 | 56 | 260 | 1.0 | 8.0 | 0.00 | 0.00 | 0.00 | 51 | 1013.2 |
| 20260502011803 | 56 | 212 | 2.0 | 9.0 | 0.00 | 0.00 | 0.00 | 51 | 1013.2 |
| 20260502011303 | 56 | 218 | 2.0 | 9.0 | 0.00 | 0.00 | 0.00 | 51 | 1013.2 |
| 20260502010802 | 56 | 273 | 2.0 | 5.0 | 0.00 | 0.00 | 0.00 | 51 | 1013.4 |
| 20260502010303 | 56 | 255 | 2.0 | 5.0 | 0.00 | 0.00 | 0.00 | 50 | 1013.4 |
| 20260502005803 | 56 | 231 | 2.0 | 6.0 | 0.00 | 0.00 | 0.00 | 50 | 1013.4 |
| 20260502004802 | 57 | 258 | 3.0 | 8.0 | 0.00 | 0.00 | 0.00 | 50 | 1013.6 |
| 20260502003803 | 57 | 245 | 3.0 | 7.0 | 0.00 | 0.00 | 0.00 | 49 | 1013.6 |
| 20260502003303 | 57 | 252 | 4.0 | 12.0 | 0.00 | 0.00 | 0.00 | 48 | 1013.6 |
| 20260502002803 | 57 | 257 | 4.0 | 12.0 | 0.00 | 0.00 | 0.00 | 48 | 1013.6 |
| 20260502002305 | 57 | 118 | 2.0 | 12.0 | 0.00 | 0.00 | 0.00 | 48 | 1013.6 |
| 20260502001802 | 57 | 195 | 3.0 | 9.0 | 0.00 | 0.00 | 0.00 | 48 | 1013.6 |
| 20260502001303 | 57 | 214 | 4.0 | 13.0 | 0.00 | 0.00 | 0.00 | 48 | 1013.6 |
| 20260501235305 | 58 | 212 | 5.0 | 9.0 | 0.00 | 0.00 | 0.00 | 47 | 1013.7 |
| 20260501234803 | 58 | 182 | 4.0 | 10.0 | 0.00 | 0.00 | 0.00 | 47 | 1013.7 |
| 20260501234303 | 58 | 229 | 4.0 | 12.0 | 0.00 | 0.00 | 0.00 | 47 | 1013.7 |
| 20260501233803 | 58 | 268 | 2.0 | 16.0 | 0.00 | 0.00 | 0.00 | 47 | 1013.7 |
| 20260501233302 | 58 | 233 | 5.0 | 16.0 | 0.00 | 0.00 | 0.00 | 47 | 1013.7 |
| 20260501232803 | 58 | 178 | 4.0 | 12.0 | 0.00 | 0.00 | 0.00 | 47 | 1013.9 |
| 20260501232306 | 58 | 231 | 4.0 | 9.0 | 0.00 | 0.00 | 0.00 | 47 | 1013.9 |
| 20260501231803 | 58 | 200 | 5.0 | 13.0 | 0.00 | 0.00 | 0.00 | 47 | 1013.9 |
| 20260501231303 | 58 | 290 | 5.0 | 12.0 | 0.00 | 0.00 | 0.00 | 47 | 1013.9 |
| 20260501230303 | 59 | 260 | 6.0 | 13.0 | 0.00 | 0.00 | 0.00 | 46 | 1013.9 |
| 20260501225803 | 59 | 257 | 4.0 | 10.0 | 0.00 | 0.00 | 0.00 | 46 | 1013.9 |
| 20260501225305 | 59 | 250 | 5.0 | 18.0 | 0.00 | 0.00 | 0.00 | 46 | 1013.9 |
| 20260501224803 | 59 | 227 | 5.0 | 10.0 | 0.00 | 0.00 | 0.00 | 46 | 1013.9 |
| 20260501224303 | 59 | 202 | 5.0 | 14.0 | 0.00 | 0.00 | 0.00 | 46 | 1014.1 |
| 20260501223803 | 59 | 158 | 3.0 | 9.0 | 0.00 | 0.00 | 0.00 | 46 | 1014.1 |
| 20260501223302 | 59 | 272 | 3.0 | 10.0 | 0.00 | 0.00 | 0.00 | 46 | 1014.1 |
| 20260501222802 | 59 | 257 | 5.0 | 13.0 | 0.00 | 0.00 | 0.00 | 45 | 1014.1 |
| 20260501222305 | 60 | 262 | 2.0 | 13.0 | 0.00 | 0.00 | 0.00 | 45 | 1014.3 |
| 20260501221803 | 60 | 232 | 3.0 | 9.0 | 0.00 | 0.00 | 0.00 | 45 | 1014.3 |
| 20260501221303 | 60 | 231 | 6.0 | 12.0 | 0.00 | 0.00 | 0.00 | 44 | 1014.3 |
| 20260501220815 | 60 | 204 | 7.0 | 13.0 | 0.00 | 0.00 | 0.00 | 44 | 1014.3 |
| 20260501220302 | 60 | 223 | 5.0 | 12.0 | 0.00 | 0.00 | 0.00 | 44 | 1014.3 |
| 20260501215305 | 61 | 217 | 5.0 | 14.0 | 0.00 | 0.00 | 0.00 | 43 | 1014.3 |
| 20260501214802 | 61 | 206 | 2.0 | 8.0 | 0.00 | 0.00 | 0.00 | 43 | 1014.3 |
| 20260501214303 | 61 | 226 | 2.0 | 8.0 | 0.00 | 0.00 | 0.00 | 43 | 1014.3 |
| 20260501213303 | 61 | 255 | 3.0 | 10.0 | 0.00 | 0.00 | 0.00 | 43 | 1014.3 |
| 20260501212803 | 62 | 233 | 3.0 | 10.0 | 0.00 | 0.00 | 0.00 | 42 | 1014.3 |
| 20260501212305 | 62 | 244 | 6.0 | 13.0 | 0.00 | 0.00 | 0.00 | 41 | 1014.3 |
| 20260501210803 | 63 | 263 | 4.0 | 12.0 | 0.00 | 0.00 | 0.00 | 41 | 1014.3 |
| 20260501205803 | 63 | 261 | 3.0 | 12.0 | 0.00 | 0.00 | 0.00 | 41 | 1014.3 |
| 20260501205305 | 63 | 264 | 4.0 | 12.0 | 0.00 | 0.00 | 0.00 | 41 | 1014.3 |
| 20260501204802 | 64 | 195 | 1.0 | 5.0 | 0.00 | 0.00 | 0.00 | 40 | 1014.3 |
| 20260501204304 | 64 | 243 | 3.0 | 9.0 | 0.00 | 0.00 | 0.00 | 40 | 1014.3 |
| 20260501203803 | 64 | 259 | 2.0 | 9.0 | 0.00 | 0.00 | 0.00 | 40 | 1014.3 |
| 20260501203303 | 64 | 217 | 3.0 | 12.0 | 0.00 | 0.00 | 0.00 | 40 | 1014.3 |
| 20260501202802 | 64 | 240 | 5.0 | 13.0 | 0.00 | 0.00 | 0.00 | 39 | 1014.3 |
| 20260501202306 | 64 | 206 | 5.0 | 12.0 | 0.00 | 0.00 | 0.00 | 39 | 1014.4 |
| 20260501201802 | 64 | 229 | 5.0 | 12.0 | 0.00 | 0.00 | 0.00 | 39 | 1014.4 |
| 20260501201303 | 64 | 184 | 3.0 | 10.0 | 0.00 | 0.00 | 0.00 | 39 | 1014.4 |
| 20260501200803 | 65 | 233 | 3.0 | 12.0 | 0.00 | 0.00 | 0.00 | 39 | 1014.5 |
| 20260501195804 | 65 | 210 | 6.0 | 12.0 | 0.00 | 0.00 | 0.00 | 39 | 1014.5 |
| 20260501195305 | 65 | 223 | 6.0 | 13.0 | 0.00 | 0.00 | 0.00 | 40 | 1014.5 |
| 20260501194803 | 65 | 204 | 3.0 | 12.0 | 0.00 | 0.00 | 0.00 | 40 | 1014.5 |
| 20260501194302 | 65 | 215 | 4.0 | 12.0 | 0.00 | 0.00 | 0.00 | 40 | 1014.4 |
| 20260501193803 | 66 | 231 | 5.0 | 13.0 | 0.00 | 0.00 | 0.00 | 40 | 1014.4 |
| 20260501193302 | 66 | 189 | 5.0 | 8.0 | 0.00 | 0.00 | 0.00 | 39 | 1014.4 |
| 20260501192803 | 66 | 234 | 3.0 | 9.0 | 0.00 | 0.00 | 0.00 | 39 | 1014.4 |
| 20260501192306 | 66 | 196 | 5.0 | 8.0 | 0.00 | 0.00 | 0.00 | 39 | 1014.4 |
| 20260501191802 | 66 | 192 | 5.0 | 10.0 | 0.00 | 0.00 | 0.00 | 39 | 1014.4 |
| 20260501191303 | 66 | 210 | 3.0 | 9.0 | 0.00 | 0.00 | 0.00 | 39 | 1014.4 |
| 20260501190303 | 67 | 208 | 4.0 | 12.0 | 0.00 | 0.00 | 0.00 | 39 | 1014.4 |
| 20260501185802 | 67 | 217 | 4.0 | 12.0 | 0.00 | 0.00 | 0.00 | 39 | 1014.4 |
| 20260501185305 | 67 | 223 | 5.0 | 9.0 | 0.00 | 0.00 | 0.00 | 39 | 1014.2 |
| 20260501184803 | 67 | 234 | 3.0 | 8.0 | 0.00 | 0.00 | 0.00 | 39 | 1014.2 |
| 20260501184302 | 68 | 214 | 5.0 | 9.0 | 0.00 | 0.00 | 0.00 | 38 | 1014.2 |
| 20260501183803 | 68 | 213 | 3.0 | 9.0 | 0.00 | 0.00 | 0.00 | 38 | 1014.2 |
| 20260501183303 | 68 | 220 | 3.0 | 6.0 | 0.00 | 0.00 | 0.00 | 38 | 1014.2 |
| 20260501182803 | 68 | 228 | 5.0 | 10.0 | 0.00 | 0.00 | 0.00 | 38 | 1014.2 |
| 20260501182306 | 69 | 158 | 3.0 | 9.0 | 0.00 | 0.00 | 0.00 | 37 | 1014.2 |
| 20260501181803 | 69 | 264 | 3.0 | 12.0 | 0.00 | 0.00 | 0.00 | 37 | 1014.2 |
| 20260501181303 | 69 | 241 | 4.0 | 12.0 | 0.00 | 0.00 | 0.00 | 36 | 1014.2 |
| 20260501180803 | 69 | 211 | 3.0 | 7.0 | 0.00 | 0.00 | 0.00 | 36 | 1014.2 |
| 20260501180303 | 70 | 230 | 3.0 | 12.0 | 0.00 | 0.00 | 0.00 | 35 | 1014.1 |
| 20260501175803 | 70 | 221 | 5.0 | 9.0 | 0.00 | 0.00 | 0.00 | 34 | 1014.1 |
| 20260501174803 | 70 | 172 | 2.0 | 10.0 | 0.00 | 0.00 | 0.00 | 34 | 1013.9 |
| 20260501174303 | 71 | 194 | 3.0 | 9.0 | 0.00 | 0.00 | 0.00 | 33 | 1013.9 |